Weather History for KASX - January, 2013

Change the Weather History Date:

Thursday, January 10, 2013

  Actual Average Record
Temperature  
Mean Temperature 30 °F -  
Max Temperature 45 °F 20 °F 51 °F (2012)
Min Temperature 15 °F -1 °F -26 °F (1982)
Degree Days  
Heating Degree Days 35    
Moisture  
Dew Point 18 °F    
Average Humidity 58    
Maximum Humidity 93    
Minimum Humidity 26    
Precipitation  
Precipitation 0.07 in - - ()
Sea Level Pressure  
Sea Level Pressure 30.13 in    
Wind  
Wind Speed 4 mph (South)    
Max Wind Speed 14 mph    
Max Gust Speed 23 mph    
Visibility 9 miles    
Events Rain    
Averages and records for this station are not official NWS values.
T = Trace of Precipitation, MM = Missing Value Source: NWS Daily Summary

Daily Weather History Graph

Daily Weather History Graph

Search for Another Location

Airport or City:

Trip Planner

Search our weather history database for the weather conditions in past years. The results will help you decide how hot, cold, wet, or windy it might be!

Date:

Astronomy

Jan. 10, 2013 Rise Set
Actual Time 7:45 AM CST 4:37 PM CST
Civil Twilight 7:11 AM CST 5:11 PM CST
Nautical Twilight 6:33 AM CST 5:49 PM CST
Astronomical Twilight 5:57 AM CST 6:25 PM CST
Moon 6:25 AM CST (1/10) 3:46 PM CST (1/10)
Length of Visible Light 9h 59m
Length of Day
8h 51m
Waning Crescent, 2% of the Moon is Illuminated
Jan 10
Waning Crescent
Jan 11
New
Jan 18
First Quarter
Jan 26
Full
Feb 3
Last Quarter

Hourly Weather History & Observations

Time (CST) Temp. Windchill Dew Point Humidity Pressure Visibility Wind Dir Wind Speed Gust Speed Precip Events Conditions
12:53 AM 19.0 °F 13.9 °F 15.1 °F 85% 30.37 in 10.0 mi SSW 3.5 mph - N/A   Clear
1:53 AM 18.0 °F - 15.1 °F 88% 30.38 in 10.0 mi Calm Calm - N/A   Clear
2:53 AM 15.1 °F 9.4 °F 12.0 °F 88% 30.38 in 10.0 mi SSW 3.5 mph - N/A   Clear
3:53 AM 15.1 °F - 10.9 °F 84% 30.37 in 10.0 mi Calm Calm - N/A   Clear
4:53 AM 16.0 °F - 12.0 °F 84% 30.36 in 10.0 mi Calm Calm - N/A   Clear
5:53 AM 26.1 °F - 15.1 °F 63% 30.31 in 10.0 mi Calm Calm - N/A   Clear
6:53 AM 30.0 °F 21.1 °F 16.0 °F 56% 30.30 in 10.0 mi SSW 10.4 mph 16.1 mph N/A   Clear
7:53 AM 34.0 °F 25.5 °F 16.0 °F 48% 30.30 in 10.0 mi SSW 11.5 mph 19.6 mph N/A   Clear
8:53 AM 35.1 °F 28.6 °F 17.1 °F 48% 30.29 in 10.0 mi SSW 8.1 mph - N/A   Clear
9:53 AM 39.9 °F 32.9 °F 16.0 °F 38% 30.27 in 10.0 mi SSW 11.5 mph - N/A   Clear
10:53 AM 42.1 °F 34.9 °F 15.1 °F 34% 30.26 in 10.0 mi SSW 13.8 mph 20.7 mph N/A   Clear
11:53 AM 44.1 °F 38.1 °F 15.1 °F 31% 30.21 in 10.0 mi SSW 11.5 mph 23.0 mph N/A   Clear
12:53 PM 43.0 °F 36.4 °F 12.9 °F 30% 30.17 in 10.0 mi SSW 12.7 mph 21.9 mph N/A   Clear
1:53 PM 45.0 °F 39.7 °F 12.0 °F 26% 30.15 in 10.0 mi SSW 10.4 mph 16.1 mph N/A   Clear
2:53 PM 45.0 °F 41.8 °F 12.0 °F 26% 30.14 in 10.0 mi South 5.8 mph - N/A   Clear
3:53 PM 44.1 °F 42.5 °F 12.0 °F 27% 30.12 in 10.0 mi SSE 3.5 mph - N/A   Clear
4:53 PM 42.1 °F 40.2 °F 12.9 °F 31% 30.10 in 10.0 mi SSE 3.5 mph - N/A   Clear
5:53 PM 42.1 °F 39.2 °F 10.0 °F 27% 30.04 in 10.0 mi South 4.6 mph - N/A   Clear
6:53 PM 42.1 °F 39.2 °F 10.9 °F 28% 30.00 in 10.0 mi South 4.6 mph - N/A   Partly Cloudy
7:53 PM 41.0 °F 39.0 °F 12.9 °F 32% 29.96 in 10.0 mi South 3.5 mph - N/A   Overcast
8:53 PM 37.9 °F - 24.1 °F 57% 29.92 in 7.0 mi Calm Calm - 0.01 in Rain Light Rain
9:53 PM 35.1 °F - 28.9 °F 78% 29.88 in 6.0 mi Calm Calm - 0.05 in Rain Light Rain
10:10 PM 33.8 °F - 30.2 °F 87% 29.84 in 4.0 mi Calm Calm - 0.01 in Rain Rain
10:32 PM 33.8 °F - 30.2 °F 87% 29.81 in 4.0 mi Calm Calm - 0.01 in Rain Rain
10:49 PM 33.8 °F - 32.0 °F 93% 29.82 in 4.0 mi Calm Calm - 0.01 in Rain Rain
10:53 PM 34.0 °F - 32.0 °F 92% 29.84 in 4.0 mi Calm Calm - 0.01 in Rain Light Rain
11:53 PM 34.0 °F - 32.0 °F 92% 29.80 in 8.0 mi Calm Calm - 0.00 in   Overcast